| time (UTC) | temp F | wind direction | speed MPH | gust MPH | rain 1hr in | rain 24hr in | rain mn in | humidity % | barometer mb |
| 20260904144328 | 86 | 148 | 0.0 | 0.0 | 0.00 | 0.00 | 0.00 | 80 | 989.5 |
| 20260904143854 | 86 | 146 | 0.0 | 0.0 | 0.00 | 0.00 | 0.00 | 81 | 989.5 |
| 20260904143437 | 84 | 146 | 0.0 | 0.0 | 0.00 | 0.00 | 0.00 | 83 | 989.5 |
| 20260904143006 | 83 | 145 | 0.0 | 0.0 | 0.00 | 0.00 | 0.00 | 86 | 989.5 |
| 20260904142549 | 82 | 142 | 0.0 | 0.0 | 0.00 | 0.00 | 0.00 | 86 | 989.5 |
| 20260904141703 | 80 | 144 | 0.0 | 0.0 | 0.00 | 0.00 | 0.00 | 90 | 989.5 |
| 20260904141247 | 79 | 150 | 0.0 | 0.0 | 0.00 | 0.00 | 0.00 | 91 | 989.5 |
| 20260904140832 | 79 | 138 | 0.0 | 0.0 | 0.00 | 0.00 | 0.00 | 92 | 989.5 |
| 20260904140416 | 79 | 153 | 0.0 | 0.0 | 0.00 | 0.00 | 0.00 | 92 | 989.5 |
| 20260904135958 | 78 | 152 | 0.0 | 0.0 | 0.00 | 0.00 | 0.00 | 93 | 989.5 |
| 20260904135540 | 78 | 142 | 0.0 | 0.0 | 0.00 | 0.00 | 0.00 | 93 | 989.5 |
| 20260904135123 | 78 | 154 | 0.0 | 0.0 | 0.00 | 0.00 | 0.00 | 93 | 989.5 |
| 20260904134706 | 77 | 151 | 0.0 | 0.0 | 0.00 | 0.00 | 0.00 | 94 | 989.5 |
| 20260904134235 | 77 | 151 | 0.0 | 0.0 | 0.00 | 0.00 | 0.00 | 95 | 989.8 |
| 20260904133802 | 76 | 137 | 0.0 | 0.0 | 0.00 | 0.00 | 0.00 | 95 | 989.8 |
| 20260904133346 | 76 | 142 | 0.0 | 0.0 | 0.00 | 0.00 | 0.00 | 95 | 989.5 |
| 20260904132928 | 76 | 154 | 0.0 | 0.0 | 0.00 | 0.00 | 0.00 | 96 | 989.5 |
| 20260904132042 | 75 | 140 | 0.0 | 0.0 | 0.00 | 0.00 | 0.00 | 96 | 989.5 |
| 20260904131611 | 75 | 150 | 0.0 | 0.0 | 0.00 | 0.00 | 0.00 | 97 | 989.8 |
| 20260904131155 | 75 | 149 | 0.0 | 0.0 | 0.00 | 0.00 | 0.00 | 97 | 989.8 |
| 20260904130307 | 75 | 150 | 0.0 | 0.0 | 0.00 | 0.00 | 0.00 | 97 | 989.8 |
| 20260904125419 | 74 | 154 | 0.0 | 0.0 | 0.00 | 0.00 | 0.00 | 99 | 989.8 |
| 20260904125004 | 74 | 148 | 0.0 | 0.0 | 0.00 | 0.00 | 0.00 | 99 | 990.1 |
| 20260904123217 | 73 | 150 | 0.0 | 0.0 | 0.00 | 0.00 | 0.00 | 99 | 989.8 |
| 20260904122801 | 73 | 156 | 0.0 | 0.0 | 0.00 | 0.00 | 0.00 | 99 | 989.8 |
| 20260904121902 | 72 | 162 | 0.0 | 0.0 | 0.00 | 0.00 | 0.00 | 99 | 989.8 |
| 20260904121448 | 72 | 159 | 0.0 | 0.0 | 0.00 | 0.00 | 0.00 | 99 | 989.8 |
| 20260904121034 | 72 | 157 | 0.0 | 0.0 | 0.00 | 0.00 | 0.00 | 99 | 989.8 |
| 20260904120618 | 72 | 158 | 0.0 | 0.0 | 0.00 | 0.00 | 0.00 | 99 | 989.8 |
| 20260904120201 | 72 | 155 | 0.0 | 0.0 | 0.00 | 0.00 | 0.00 | 99 | 989.8 |
| 20260904115745 | 72 | 160 | 0.0 | 0.0 | 0.00 | 0.00 | 0.00 | 99 | 989.8 |
| 20260904115331 | 72 | 157 | 0.0 | 0.0 | 0.00 | 0.00 | 0.00 | 99 | 989.8 |
| 20260904114917 | 72 | 158 | 0.0 | 0.0 | 0.00 | 0.00 | 0.00 | 99 | 989.8 |
| 20260904114502 | 71 | 162 | 0.0 | 0.0 | 0.00 | 0.00 | 0.00 | 99 | 989.8 |
| 20260904113616 | 71 | 163 | 0.0 | 0.0 | 0.00 | 0.00 | 0.00 | 99 | 989.8 |
| 20260904113201 | 71 | 165 | 0.0 | 0.0 | 0.00 | 0.00 | 0.00 | 99 | 989.8 |
| 20260904112745 | 71 | 147 | 0.0 | 0.0 | 0.00 | 0.00 | 0.00 | 99 | 989.8 |
| 20260904112329 | 71 | 160 | 0.0 | 0.0 | 0.00 | 0.00 | 0.00 | 99 | 989.8 |
| 20260904111913 | 71 | 155 | 0.0 | 0.0 | 0.00 | 0.00 | 0.00 | 99 | 989.8 |
| 20260904111457 | 71 | 161 | 0.0 | 0.0 | 0.00 | 0.00 | 0.00 | 99 | 989.5 |
| 20260904111042 | 71 | 164 | 0.0 | 0.0 | 0.00 | 0.00 | 0.00 | 99 | 989.8 |
| 20260904110626 | 71 | 163 | 0.0 | 0.0 | 0.00 | 0.00 | 0.00 | 99 | 989.8 |
| 20260904110211 | 71 | 162 | 0.0 | 0.0 | 0.00 | 0.00 | 0.00 | 99 | 989.5 |
| 20260904105308 | 71 | 164 | 0.0 | 0.0 | 0.00 | 0.00 | 0.00 | 99 | 989.5 |
| 20260904104421 | 71 | 161 | 0.0 | 0.0 | 0.00 | 0.00 | 0.00 | 99 | 989.5 |
| 20260904103950 | 71 | 156 | 0.0 | 0.0 | 0.00 | 0.00 | 0.00 | 99 | 989.5 |
| 20260904103521 | 71 | 158 | 0.0 | 0.0 | 0.00 | 0.00 | 0.00 | 99 | 989.5 |
| 20260904103105 | 71 | 162 | 0.0 | 0.0 | 0.00 | 0.00 | 0.00 | 99 | 989.5 |
| 20260904102634 | 70 | 163 | 0.0 | 0.0 | 0.00 | 0.00 | 0.00 | 99 | 989.5 |
| 20260904102220 | 71 | 163 | 0.0 | 0.0 | 0.00 | 0.00 | 0.00 | 99 | 989.1 |
| 20260904101802 | 71 | 164 | 0.0 | 0.0 | 0.00 | 0.00 | 0.00 | 99 | 989.5 |
| 20260904101347 | 71 | 164 | 0.0 | 0.0 | 0.00 | 0.00 | 0.00 | 99 | 989.5 |
| 20260904100932 | 71 | 165 | 0.0 | 0.0 | 0.00 | 0.00 | 0.00 | 99 | 989.5 |
| 20260904100517 | 71 | 165 | 0.0 | 0.0 | 0.00 | 0.00 | 0.00 | 99 | 989.1 |
| 20260904095617 | 71 | 159 | 0.0 | 0.0 | 0.00 | 0.00 | 0.00 | 99 | 989.1 |
| 20260904095159 | 71 | 156 | 0.0 | 0.0 | 0.00 | 0.00 | 0.00 | 99 | 989.5 |
| 20260904094744 | 71 | 152 | 0.0 | 0.0 | 0.00 | 0.00 | 0.00 | 99 | 989.1 |
| 20260904093843 | 71 | 150 | 0.0 | 0.0 | 0.00 | 0.00 | 0.00 | 99 | 989.1 |
| 20260904092952 | 71 | 150 | 0.0 | 0.0 | 0.00 | 0.00 | 0.00 | 99 | 989.1 |
| 20260904092036 | 71 | 154 | 0.0 | 0.0 | 0.00 | 0.00 | 0.00 | 99 | 988.8 |
| 20260904091120 | 72 | 159 | 0.0 | 0.0 | 0.00 | 0.00 | 0.00 | 99 | 989.1 |
| 20260904090704 | 72 | 157 | 0.0 | 0.0 | 0.00 | 0.00 | 0.00 | 99 | 989.1 |
| 20260904090250 | 71 | 159 | 0.0 | 0.0 | 0.00 | 0.00 | 0.00 | 99 | 988.8 |
| 20260904085834 | 72 | 157 | 0.0 | 0.0 | 0.00 | 0.00 | 0.00 | 99 | 988.8 |
| 20260904085419 | 72 | 156 | 0.0 | 0.0 | 0.00 | 0.00 | 0.00 | 99 | 988.8 |
| 20260904085003 | 71 | 155 | 0.0 | 0.0 | 0.00 | 0.00 | 0.00 | 99 | 989.1 |
| 20260904084533 | 72 | 156 | 0.0 | 0.0 | 0.00 | 0.00 | 0.00 | 99 | 988.8 |
| 20260904084118 | 72 | 157 | 0.0 | 0.0 | 0.00 | 0.00 | 0.00 | 99 | 988.8 |
| 20260904083648 | 72 | 146 | 0.0 | 0.0 | 0.00 | 0.00 | 0.00 | 99 | 988.8 |
| 20260904083234 | 72 | 144 | 0.0 | 0.0 | 0.00 | 0.00 | 0.00 | 99 | 989.1 |
| 20260904082816 | 72 | 150 | 0.0 | 0.0 | 0.00 | 0.00 | 0.00 | 99 | 988.8 |
| 20260904082347 | 72 | 144 | 0.0 | 0.0 | 0.00 | 0.00 | 0.00 | 99 | 988.4 |
| 20260904081930 | 72 | 151 | 0.0 | 0.0 | 0.00 | 0.00 | 0.00 | 99 | 988.8 |
| 20260904081502 | 72 | 148 | 0.0 | 0.0 | 0.00 | 0.00 | 0.00 | 99 | 988.4 |
| 20260904081048 | 72 | 153 | 0.0 | 0.0 | 0.00 | 0.00 | 0.00 | 99 | 988.4 |
| 20260904080617 | 72 | 145 | 0.0 | 0.0 | 0.00 | 0.00 | 0.00 | 99 | 988.8 |
| 20260904075730 | 72 | 163 | 0.0 | 0.0 | 0.00 | 0.00 | 0.00 | 99 | 988.4 |
| 20260904075314 | 72 | 169 | 0.0 | 0.0 | 0.00 | 0.00 | 0.00 | 99 | 988.4 |
| 20260904074858 | 72 | 166 | 0.0 | 0.0 | 0.00 | 0.00 | 0.00 | 99 | 988.4 |
| 20260904074443 | 72 | 166 | 0.0 | 0.0 | 0.00 | 0.00 | 0.00 | 99 | 988.4 |
| 20260904074012 | 72 | 163 | 0.0 | 0.0 | 0.00 | 0.00 | 0.00 | 99 | 988.4 |
| 20260904073539 | 72 | 165 | 0.0 | 0.0 | 0.00 | 0.00 | 0.00 | 99 | 988.4 |
| 20260904073108 | 72 | 164 | 0.0 | 0.0 | 0.00 | 0.00 | 0.00 | 99 | 988.4 |
| 20260904072654 | 72 | 166 | 0.0 | 0.0 | 0.00 | 0.00 | 0.00 | 99 | 988.4 |
| 20260904072238 | 72 | 167 | 0.0 | 0.0 | 0.00 | 0.00 | 0.00 | 99 | 988.4 |
| 20260904071824 | 72 | 166 | 0.0 | 0.0 | 0.00 | 0.00 | 0.00 | 99 | 988.4 |
| 20260904071406 | 72 | 165 | 0.0 | 0.0 | 0.00 | 0.00 | 0.00 | 99 | 988.4 |
| 20260904070951 | 72 | 166 | 0.0 | 0.0 | 0.00 | 0.00 | 0.00 | 99 | 988.4 |
| 20260904070535 | 72 | 167 | 0.0 | 0.0 | 0.00 | 0.00 | 0.00 | 99 | 988.8 |
| 20260904070120 | 72 | 166 | 0.0 | 0.0 | 0.00 | 0.00 | 0.00 | 99 | 988.8 |
| 20260904065233 | 72 | 169 | 1.0 | 2.0 | 0.00 | 0.00 | 0.00 | 99 | 989.1 |
| 20260904064815 | 72 | 167 | 1.0 | 2.0 | 0.00 | 0.00 | 0.00 | 99 | 988.8 |
| 20260904064358 | 72 | 166 | 1.0 | 2.0 | 0.00 | 0.00 | 0.00 | 99 | 988.8 |
| 20260904063941 | 72 | 167 | 1.0 | 2.0 | 0.00 | 0.00 | 0.00 | 99 | 988.4 |
| 20260904063525 | 72 | 167 | 1.0 | 2.0 | 0.00 | 0.00 | 0.00 | 99 | 988.8 |
| 20260904063053 | 72 | 166 | 1.0 | 2.0 | 0.00 | 0.00 | 0.00 | 99 | 988.8 |
| 20260904062622 | 72 | 169 | 2.0 | 3.0 | 0.00 | 0.00 | 0.00 | 99 | 989.1 |
| 20260904062207 | 72 | 169 | 2.0 | 2.0 | 0.00 | 0.00 | 0.00 | 99 | 989.1 |
| 20260904061751 | 72 | 169 | 1.0 | 2.0 | 0.00 | 0.00 | 0.00 | 99 | 989.1 |
| 20260904061336 | 72 | 168 | 0.0 | 2.0 | 0.00 | 0.00 | 0.00 | 99 | 989.5 |
| 20260904060450 | 72 | 170 | 2.0 | 2.0 | 0.00 | 0.00 | 0.00 | 99 | 989.1 |
| 20260904060019 | 72 | 169 | 1.0 | 2.0 | 0.00 | 0.00 | 0.00 | 99 | 989.1 |
| 20260904055603 | 72 | 170 | 2.0 | 2.0 | 0.00 | 0.00 | 0.00 | 99 | 989.1 |
| 20260904054717 | 73 | 169 | 1.0 | 2.0 | 0.00 | 0.00 | 0.00 | 99 | 989.1 |
| 20260904053815 | 73 | 168 | 0.0 | 0.0 | 0.00 | 0.00 | 0.00 | 99 | 989.5 |
| 20260904053359 | 73 | 169 | 0.0 | 0.0 | 0.00 | 0.00 | 0.00 | 99 | 989.5 |
| 20260904052927 | 73 | 169 | 0.0 | 0.0 | 0.00 | 0.00 | 0.00 | 99 | 989.1 |
| 20260904052418 | 73 | 168 | 0.0 | 0.0 | 0.00 | 0.00 | 0.00 | 99 | 989.5 |
| 20260904051842 | 73 | 167 | 0.0 | 0.0 | 0.00 | 0.00 | 0.00 | 99 | 989.5 |
| 20260904051213 | 74 | 170 | 0.0 | 2.0 | 0.00 | 0.00 | 0.00 | 99 | 989.5 |
| 20260904050645 | 74 | 171 | 1.0 | 2.0 | 0.00 | 0.00 | 0.00 | 99 | 989.1 |
| 20260904050034 | 73 | 169 | 1.0 | 2.0 | 0.00 | 0.00 | 0.00 | 99 | 989.1 |
| 20260904044826 | 73 | 172 | 2.0 | 3.0 | 0.00 | 0.00 | 0.00 | 99 | 989.5 |
| 20260904044248 | 73 | 173 | 0.0 | 0.0 | 0.00 | 0.00 | 0.00 | 99 | 989.5 |
| 20260904043619 | 74 | 170 | 1.0 | 2.0 | 0.00 | 0.00 | 0.00 | 99 | 989.5 |
| 20260904043026 | 73 | 171 | 1.0 | 2.0 | 0.00 | 0.00 | 0.00 | 99 | 989.5 |
| 20260904041823 | 74 | 171 | 1.0 | 2.0 | 0.00 | 0.00 | 0.00 | 99 | 989.5 |
| 20260904041219 | 74 | 172 | 2.0 | 2.0 | 0.00 | 0.00 | 0.00 | 99 | 989.5 |
| 20260904040620 | 74 | 171 | 1.0 | 2.0 | 0.00 | 0.00 | 0.00 | 99 | 989.5 |
| 20260904040025 | 74 | 171 | 0.0 | 0.0 | 0.00 | 0.00 | 0.00 | 99 | 989.5 |
| 20260904034217 | 74 | 172 | 0.0 | 0.0 | 0.00 | 0.00 | 0.00 | 99 | 989.5 |
| 20260904033614 | 74 | 173 | 0.0 | 0.0 | 0.00 | 0.00 | 0.00 | 99 | 989.5 |
| 20260904032426 | 74 | 173 | 0.0 | 0.0 | 0.00 | 0.00 | 0.00 | 99 | 989.8 |
| 20260904031807 | 74 | 180 | 2.0 | 3.0 | 0.00 | 0.00 | 0.00 | 99 | 989.5 |
| 20260904031220 | 74 | 178 | 0.0 | 1.0 | 0.00 | 0.00 | 0.00 | 99 | 989.5 |
| 20260904030630 | 75 | 185 | 2.0 | 3.0 | 0.00 | 0.00 | 0.00 | 99 | 989.5 |
| 20260904030036 | 75 | 186 | 2.0 | 3.0 | 0.00 | 0.00 | 0.00 | 99 | 989.5 |
| 20260904025411 | 75 | 188 | 1.0 | 2.0 | 0.00 | 0.00 | 0.00 | 99 | 989.5 |
| 20260904024825 | 75 | 197 | 1.0 | 2.0 | 0.00 | 0.00 | 0.00 | 99 | 989.5 |
| 20260904024224 | 75 | 188 | 2.0 | 2.0 | 0.00 | 0.00 | 0.00 | 99 | 989.8 |
| 20260904023042 | 75 | 170 | 1.0 | 1.0 | 0.00 | 0.00 | 0.00 | 99 | 989.8 |
| 20260904022433 | 75 | 173 | 0.0 | 2.0 | 0.00 | 0.00 | 0.00 | 99 | 989.8 |
| 20260904021206 | 75 | 168 | 0.0 | 2.0 | 0.00 | 0.00 | 0.00 | 99 | 989.8 |
| 20260904020642 | 75 | 172 | 1.0 | 1.0 | 0.00 | 0.00 | 0.00 | 99 | 989.1 |
| 20260904020022 | 75 | 175 | 2.0 | 2.0 | 0.00 | 0.00 | 0.00 | 99 | 989.5 |
| 20260904015423 | 76 | 169 | 1.0 | 2.0 | 0.00 | 0.00 | 0.00 | 99 | 989.5 |
| 20260904014240 | 76 | 173 | 0.0 | 0.0 | 0.00 | 0.00 | 0.00 | 99 | 989.5 |
| 20260904013613 | 76 | 175 | 1.0 | 1.0 | 0.00 | 0.00 | 0.00 | 99 | 989.5 |
| 20260904013043 | 76 | 176 | 0.0 | 1.0 | 0.00 | 0.00 | 0.00 | 99 | 989.5 |
| 20260904012419 | 76 | 176 | 0.0 | 1.0 | 0.00 | 0.00 | 0.00 | 99 | 989.1 |
| 20260904011825 | 76 | 174 | 0.0 | 1.0 | 0.00 | 0.00 | 0.00 | 99 | 989.1 |
| 20260904010009 | 76 | 180 | 0.0 | 1.0 | 0.00 | 0.00 | 0.00 | 99 | 989.1 |
| 20260904005444 | 77 | 184 | 0.0 | 1.0 | 0.00 | 0.00 | 0.00 | 99 | 989.1 |
| 20260904004806 | 77 | 194 | 0.0 | 1.0 | 0.00 | 0.00 | 0.00 | 99 | 989.1 |
| 20260904004242 | 77 | 193 | 0.0 | 1.0 | 0.00 | 0.00 | 0.00 | 99 | 989.1 |
| 20260904002445 | 78 | 220 | 0.0 | 1.0 | 0.00 | 0.00 | 0.00 | 98 | 988.4 |
| 20260904001848 | 78 | 221 | 0.0 | 1.0 | 0.00 | 0.00 | 0.00 | 98 | 988.4 |
| 20260904001236 | 78 | 224 | 1.0 | 1.0 | 0.00 | 0.00 | 0.00 | 98 | 988.4 |
| 20260904000641 | 78 | 244 | 0.0 | 1.0 | 0.00 | 0.00 | 0.00 | 97 | 988.4 |
| 20260904000015 | 78 | 199 | 0.0 | 2.0 | 0.00 | 0.00 | 0.00 | 97 | 988.4 |
| 20260903235440 | 79 | 178 | 1.0 | 2.0 | 0.00 | 0.00 | 0.00 | 96 | 988.1 |
| 20260903234828 | 79 | 176 | 1.0 | 1.0 | 0.00 | 0.00 | 0.00 | 96 | 988.4 |
| 20260903234218 | 79 | 245 | 0.0 | 0.0 | 0.00 | 0.00 | 0.00 | 95 | 988.1 |
| 20260903233618 | 80 | 251 | 0.0 | 1.0 | 0.00 | 0.00 | 0.00 | 95 | 988.4 |
| 20260903232431 | 80 | 183 | 1.0 | 1.0 | 0.00 | 0.00 | 0.00 | 94 | 987.8 |
| 20260903231236 | 81 | 154 | 1.0 | 2.0 | 0.00 | 0.00 | 0.00 | 92 | 987.8 |
| 20260903230034 | 82 | 217 | 0.0 | 1.0 | 0.00 | 0.00 | 0.00 | 91 | 987.8 |
| 20260903225421 | 82 | 308 | 0.0 | 1.0 | 0.00 | 0.00 | 0.00 | 90 | 987.8 |
| 20260903224821 | 83 | 250 | 0.0 | 1.0 | 0.00 | 0.00 | 0.00 | 88 | 987.4 |
| 20260903224246 | 83 | 243 | 0.0 | 1.0 | 0.00 | 0.00 | 0.00 | 88 | 987.8 |
| 20260903221840 | 86 | 230 | 1.0 | 2.0 | 0.00 | 0.00 | 0.00 | 84 | 987.4 |
| 20260903221234 | 87 | 230 | 1.0 | 1.0 | 0.00 | 0.00 | 0.00 | 78 | 987.1 |
| 20260903220619 | 89 | 230 | 1.0 | 2.0 | 0.00 | 0.00 | 0.00 | 74 | 987.4 |
| 20260903220026 | 90 | 231 | 0.0 | 1.0 | 0.00 | 0.00 | 0.00 | 74 | 987.1 |
| 20260903215411 | 91 | 227 | 2.0 | 2.0 | 0.00 | 0.00 | 0.00 | 72 | 987.1 |
| 20260903214833 | 92 | 235 | 1.0 | 1.0 | 0.00 | 0.00 | 0.00 | 70 | 987.1 |
| 20260903214212 | 92 | 257 | 0.0 | 2.0 | 0.00 | 0.00 | 0.00 | 69 | 987.1 |
| 20260903213610 | 92 | 264 | 1.0 | 2.0 | 0.00 | 0.00 | 0.00 | 68 | 987.4 |
| 20260903213019 | 93 | 271 | 0.0 | 2.0 | 0.00 | 0.00 | 0.00 | 66 | 987.4 |
| 20260903212434 | 92 | 259 | 0.0 | 1.0 | 0.00 | 0.00 | 0.00 | 68 | 987.4 |
| 20260903211834 | 92 | 279 | 0.0 | 1.0 | 0.00 | 0.00 | 0.00 | 67 | 987.4 |
| 20260903211243 | 92 | 245 | 0.0 | 1.0 | 0.00 | 0.00 | 0.00 | 65 | 987.4 |
| 20260903210618 | 93 | 276 | 1.0 | 2.0 | 0.00 | 0.00 | 0.00 | 64 | 987.8 |
| 20260903210020 | 93 | 276 | 0.0 | 2.0 | 0.00 | 0.00 | 0.00 | 66 | 987.8 |
| 20260903205412 | 94 | 292 | 1.0 | 2.0 | 0.00 | 0.00 | 0.00 | 64 | 987.8 |
| 20260903204849 | 94 | 232 | 1.0 | 2.0 | 0.00 | 0.00 | 0.00 | 64 | 987.8 |
| 20260903204243 | 94 | 281 | 1.0 | 2.0 | 0.00 | 0.00 | 0.00 | 64 | 987.8 |
| 20260903203628 | 93 | 242 | 0.0 | 1.0 | 0.00 | 0.00 | 0.00 | 64 | 987.8 |
| 20260903203045 | 94 | 279 | 1.0 | 2.0 | 0.00 | 0.00 | 0.00 | 64 | 988.1 |
| 20260903202421 | 91 | 282 | 0.0 | 1.0 | 0.00 | 0.00 | 0.00 | 70 | 988.1 |
| 20260903201833 | 93 | 240 | 1.0 | 2.0 | 0.00 | 0.00 | 0.00 | 65 | 988.1 |
| 20260903201246 | 93 | 280 | 1.0 | 2.0 | 0.00 | 0.00 | 0.00 | 65 | 988.1 |
| 20260903200635 | 94 | 270 | 1.0 | 3.0 | 0.00 | 0.00 | 0.00 | 65 | 988.1 |
| 20260903200012 | 95 | 254 | 1.0 | 2.0 | 0.00 | 0.00 | 0.00 | 63 | 988.1 |
| 20260903195434 | 95 | 245 | 1.0 | 2.0 | 0.00 | 0.00 | 0.00 | 65 | 988.1 |
| 20260903194843 | 94 | 249 | 1.0 | 2.0 | 0.00 | 0.00 | 0.00 | 65 | 988.1 |
| 20260903194213 | 94 | 243 | 1.0 | 2.0 | 0.00 | 0.00 | 0.00 | 65 | 988.1 |
| 20260903193639 | 94 | 267 | 0.0 | 2.0 | 0.00 | 0.00 | 0.00 | 66 | 988.4 |
| 20260903193025 | 93 | 268 | 1.0 | 1.0 | 0.00 | 0.00 | 0.00 | 65 | 988.8 |
| 20260903192439 | 94 | 279 | 0.0 | 2.0 | 0.00 | 0.00 | 0.00 | 66 | 988.8 |
| 20260903191821 | 93 | 256 | 1.0 | 2.0 | 0.00 | 0.00 | 0.00 | 67 | 988.8 |
| 20260903191212 | 92 | 269 | 3.0 | 3.0 | 0.00 | 0.00 | 0.00 | 68 | 988.8 |
| 20260903190628 | 92 | 275 | 2.0 | 3.0 | 0.00 | 0.00 | 0.00 | 69 | 988.8 |
| 20260903190031 | 92 | 259 | 1.0 | 2.0 | 0.00 | 0.00 | 0.00 | 69 | 989.1 |
| 20260903185438 | 91 | 291 | 1.0 | 2.0 | 0.00 | 0.00 | 0.00 | 71 | 989.1 |
| 20260903184239 | 94 | 257 | 1.0 | 2.0 | 0.00 | 0.00 | 0.00 | 64 | 989.1 |
| 20260903183621 | 91 | 293 | 1.0 | 2.0 | 0.00 | 0.00 | 0.00 | 71 | 989.5 |
| 20260903182434 | 92 | 322 | 2.0 | 3.0 | 0.00 | 0.00 | 0.00 | 71 | 989.5 |
| 20260903181836 | 94 | 316 | 2.0 | 3.0 | 0.00 | 0.00 | 0.00 | 64 | 989.5 |
| 20260903181249 | 94 | 112 | 1.0 | 2.0 | 0.00 | 0.00 | 0.00 | 61 | 989.5 |
| 20260903180610 | 96 | 281 | 3.0 | 4.0 | 0.00 | 0.00 | 0.00 | 58 | 989.5 |
| 20260903180039 | 96 | 279 | 3.0 | 4.0 | 0.00 | 0.00 | 0.00 | 58 | 989.5 |
| 20260903175445 | 95 | 139 | 1.0 | 3.0 | 0.00 | 0.00 | 0.00 | 56 | 989.5 |
| 20260903174825 | 96 | 165 | 2.0 | 3.0 | 0.00 | 0.00 | 0.00 | 55 | 989.5 |
| 20260903174239 | 96 | 46 | 1.0 | 2.0 | 0.00 | 0.00 | 0.00 | 55 | 989.5 |
| 20260903173015 | 95 | 46 | 2.0 | 2.0 | 0.00 | 0.00 | 0.00 | 54 | 989.8 |
| 20260903172433 | 95 | 46 | 2.0 | 3.0 | 0.00 | 0.00 | 0.00 | 55 | 989.8 |
| 20260903171826 | 96 | 47 | 0.0 | 2.0 | 0.00 | 0.00 | 0.00 | 54 | 989.8 |
| 20260903170014 | 93 | 61 | 1.0 | 2.0 | 0.00 | 0.00 | 0.00 | 64 | 989.8 |
| 20260903165428 | 94 | 50 | 1.0 | 3.0 | 0.00 | 0.00 | 0.00 | 63 | 990.1 |
| 20260903164826 | 96 | 67 | 0.0 | 2.0 | 0.00 | 0.00 | 0.00 | 60 | 990.1 |
| 20260903164224 | 94 | 67 | 1.0 | 2.0 | 0.00 | 0.00 | 0.00 | 62 | 990.1 |
| 20260903163636 | 94 | 73 | 1.0 | 2.0 | 0.00 | 0.00 | 0.00 | 63 | 990.1 |
| 20260903163045 | 94 | 70 | 1.0 | 3.0 | 0.00 | 0.00 | 0.00 | 65 | 990.1 |
| 20260903162415 | 93 | 66 | 1.0 | 2.0 | 0.00 | 0.00 | 0.00 | 64 | 990.1 |
| 20260903161805 | 94 | 66 | 2.0 | 3.0 | 0.00 | 0.00 | 0.00 | 62 | 990.1 |
| 20260903161249 | 95 | 64 | 1.0 | 1.0 | 0.00 | 0.00 | 0.00 | 61 | 990.1 |
| 20260903155408 | 92 | 61 | 0.0 | 0.0 | 0.00 | 0.00 | 0.00 | 75 | 990.8 |
| 20260903154825 | 91 | 64 | 0.0 | 1.0 | 0.00 | 0.00 | 0.00 | 75 | 990.5 |
| 20260903154226 | 91 | 62 | 1.0 | 1.0 | 0.00 | 0.00 | 0.00 | 73 | 990.5 |
| 20260903153632 | 90 | 63 | 0.0 | 1.0 | 0.00 | 0.00 | 0.00 | 75 | 990.5 |
| 20260903153007 | 89 | 55 | 0.0 | 1.0 | 0.00 | 0.00 | 0.00 | 77 | 990.5 |
| 20260903152413 | 89 | 55 | 0.0 | 1.0 | 0.00 | 0.00 | 0.00 | 78 | 990.8 |
| 20260903151835 | 88 | 55 | 0.0 | 1.0 | 0.00 | 0.00 | 0.00 | 78 | 990.5 |
| 20260903151219 | 87 | 57 | 0.0 | 2.0 | 0.00 | 0.00 | 0.00 | 78 | 990.8 |
| 20260903150626 | 86 | 55 | 0.0 | 1.0 | 0.00 | 0.00 | 0.00 | 80 | 990.8 |
| 20260903150044 | 86 | 55 | 0.0 | 2.0 | 0.00 | 0.00 | 0.00 | 81 | 990.8 |
| 20260903145437 | 86 | 65 | 1.0 | 1.0 | 0.00 | 0.00 | 0.00 | 80 | 990.5 |
| 20260903144818 | 85 | 64 | 0.0 | 1.0 | 0.00 | 0.00 | 0.00 | 81 | 990.8 |